Cozumel, Mexico

8:04 AM EST on June 28, 2017 (GMT -0500)
Cozumel

Weather History for MMCZ - November, 2014

Change the Weather History Date:

Wednesday, November 12, 2014

  Actual Average Record
Temperature  
Mean Temperature 68 °F -  
Max Temperature 78 °F 82 °F 89 °F (2002)
Min Temperature 59 °F 72 °F 57 °F (2010)
Cooling Degree Days 4    
Growing Degree Days 18 (Base 50)    
Moisture  
Dew Point 64 °F    
Average Humidity 84    
Maximum Humidity 100    
Minimum Humidity 61    
Precipitation  
Precipitation 0.00 in - - ()
Sea Level Pressure  
Sea Level Pressure 29.98 in    
Wind  
Wind Speed 2 mph ()    
Max Wind Speed 9 mph    
Max Gust Speed -    
Visibility 7.5 miles    
Events      
Averages and records for this station are not official NWS values.
T = Trace of Precipitation, MM = Missing Value Source: Averaged Metar Reports

Daily Weather History Graph

Daily Weather History Graph

Search for Another Location

Airport or City:

Trip Planner

Search our weather history database for the weather conditions in past years. The results will help you decide how hot, cold, wet, or windy it might be!

Date:

Astronomy

Nov. 12, 2014 Rise Set
Actual Time 5:55 AM CST 5:07 PM CST
Civil Twilight 5:32 AM CST 5:31 PM CST
Nautical Twilight 5:05 AM CST 5:57 PM CST
Astronomical Twilight 4:39 AM CST 6:24 PM CST
Moon 10:21 PM CST (11/12) 10:44 AM CST (11/12)
Length of Visible Light 11h 58m
Length of Day
11h 12m
Waning Gibbous, 68% of the Moon is Illuminated
Nov 12
Waning Gibbous
Nov 14
Last Quarter
Nov 22
New
Nov 29
First Quarter
Dec 6
Full

Hourly Weather History & Observations

Time (CST) Temp. Dew Point Humidity Pressure Visibility Wind Dir Wind Speed Gust Speed Precip Events Conditions
12:55 AM 62.6 °F 62.6 °F 100% 29.97 in 7.0 mi Calm Calm - N/A   Partly Cloudy
1:49 AM 62.6 °F 62.6 °F 100% 29.96 in 7.0 mi Calm Calm - N/A   Scattered Clouds
3:09 AM 60.8 °F 60.8 °F 100% 29.99 in 7.0 mi Calm Calm - N/A   Partly Cloudy
3:53 AM 60.8 °F 60.8 °F 100% 29.97 in 7.0 mi Calm Calm - N/A   Partly Cloudy
4:42 AM 59.0 °F 59.0 °F 100% 29.97 in 7.0 mi Calm Calm - N/A   Clear
5:47 AM 59.0 °F 59.0 °F 100% 29.97 in 7.0 mi Calm Calm - N/A   Clear
6:40 AM 60.8 °F 60.8 °F 100% 30.00 in 7.0 mi Calm Calm - N/A   Clear
7:52 AM 71.6 °F 68.0 °F 88% 30.02 in 8.0 mi Calm Calm - N/A   Partly Cloudy
8:45 AM 77.0 °F 66.2 °F 69% 30.06 in 8.0 mi ENE 6.9 mph - N/A   Partly Cloudy
9:47 AM 77.0 °F 64.4 °F 65% 30.04 in 8.0 mi NNE 8.1 mph - N/A   Partly Cloudy
10:51 AM 78.8 °F 66.2 °F 65% 30.01 in 8.0 mi NNE 8.1 mph - N/A   Partly Cloudy
11:50 AM 78.8 °F 66.2 °F 65% 29.98 in 8.0 mi NE 8.1 mph - N/A   Scattered Clouds
12:52 PM 78.8 °F 66.2 °F 65% 29.96 in 8.0 mi NE 9.2 mph - N/A   Scattered Clouds
1:48 PM 78.8 °F 64.4 °F 61% 29.95 in 8.0 mi ENE 8.1 mph - N/A   Scattered Clouds
2:46 PM 77.0 °F 64.4 °F 65% 29.96 in 8.0 mi ENE 8.1 mph - N/A   Partly Cloudy
3:48 PM 77.0 °F 64.4 °F 65% 29.94 in 8.0 mi ENE 6.9 mph - N/A   Clear
4:40 PM 73.4 °F 66.2 °F 78% 29.94 in 8.0 mi ENE 4.6 mph - N/A   Clear
5:50 PM 69.8 °F 66.2 °F 88% 29.94 in 7.0 mi ENE 3.5 mph - N/A   Clear
6:41 PM 69.8 °F 64.4 °F 83% 29.98 in 7.0 mi Calm Calm - N/A   Clear
7:48 PM 64.4 °F 64.4 °F 100% 29.98 in 7.0 mi Calm Calm - N/A   Partly Cloudy
8:45 PM 64.4 °F 64.4 °F 100% 30.02 in 8.0 mi Calm Calm - N/A   Clear
9:43 PM 68.0 °F 66.2 °F 94% 30.01 in 7.0 mi ENE 6.9 mph - N/A   Clear
10:54 PM 69.8 °F 66.2 °F 88% 30.00 in 7.0 mi ENE 4.6 mph - N/A   Clear
11:42 PM 69.8 °F 62.6 °F 78% 29.99 in 7.0 mi Calm Calm - N/A   Clear